IK2YOU-3 Weather Reports


time (UTC)temp
C
wind
direction
speed
KPH
gust
KPH
rain 1hr
cm
rain 24hr
cm
rain mn
cm
humidity
%
barometer
mb
20260505041347 15 219 3.2 8.0 0.00 0.00 0.00 81 1009.7
20260505040347 15 226 1.6 8.0 0.00 0.00 0.00 78 1009.7
20260505035345 15 197 0.0 3.2 0.00 0.00 0.00 77 1009.9
20260505034345 15 196 0.0 4.8 0.00 0.00 0.00 77 1009.9
20260505033340 15 205 1.6 6.4 0.00 0.00 0.00 77 1009.9
20260505032341 15 182 0.0 4.8 0.00 0.00 0.00 76 1009.9
20260505031340 15 182 3.2 8.0 0.00 0.00 0.00 75 1010.1
20260505030339 15 204 1.6 6.4 0.00 0.00 0.00 75 1010.2
20260505025552 15 252 0.0 0.0 0.00 0.00 0.00 74 1010.3
20260505024337 16 252 0.0 0.0 0.00 0.00 0.00 73 1010.5
20260505023338 16 252 0.0 0.0 0.00 0.00 0.00 72 1010.5
20260505022343 16 252 0.0 1.6 0.00 0.00 0.00 71 1010.6
20260505021341 16 252 0.0 3.2 0.00 0.00 0.00 69 1010.7
20260505020342 16 252 0.0 4.8 0.00 0.00 0.00 69 1010.8
20260505015345 16 238 1.6 6.4 0.00 0.00 0.00 68 1010.8
20260505014341 16 238 1.6 11.3 0.00 0.00 0.00 68 1010.8
20260505013336 16 309 3.2 12.9 0.00 0.00 0.00 67 1010.7
20260505012336 16 327 1.6 11.3 0.00 0.00 0.00 67 1011.1
20260505011332 16 327 0.0 4.8 0.00 0.00 0.00 67 1011.0
20260505010329 16 243 0.0 0.0 0.00 0.00 0.00 66 1011.3
20260505005448 16 301 0.0 4.8 0.00 0.00 0.00 65 1011.4
20260505004447 16 257 1.6 4.8 0.00 0.00 0.00 65 1011.7
20260505003927 16 221 1.6 9.7 0.00 0.00 0.00 64 1011.7
20260505003655 16 221 1.6 9.7 0.00 0.00 0.00 64 1011.7
20260505002925 17 235 1.6 8.0 0.00 0.00 0.00 63 1011.9
20260505002656 17 235 1.6 8.0 0.00 0.00 0.00 63 1011.9
20260505001441 17 304 3.2 14.5 0.00 0.00 0.00 62 1012.1
20260505000442 17 301 0.0 6.4 0.00 0.00 0.00 61 1012.1
20260504235444 17 244 1.6 9.7 0.00 0.00 0.00 61 1012.2
20260504234446 17 245 1.6 6.4 0.00 0.00 0.00 61 1012.4
20260504233439 17 242 1.6 9.7 0.00 0.00 0.00 61 1012.6
20260504232914 17 232 3.2 9.7 0.00 0.00 0.00 61 1012.8
20260504232651 17 232 3.2 9.7 0.00 0.00 0.00 61 1012.8
20260504231439 16 233 3.2 11.3 0.00 0.00 0.00 62 1012.8
20260504230438 16 239 1.6 4.8 0.00 0.00 0.00 62 1012.9
20260504225441 16 229 1.6 8.0 0.00 0.00 0.00 62 1012.9
20260504224439 16 240 3.2 8.0 0.00 0.00 0.00 62 1013.0
20260504223439 17 226 3.2 11.3 0.00 0.00 0.00 61 1013.1
20260504222439 17 226 3.2 11.3 0.00 0.00 0.00 59 1013.1
20260504221438 17 274 3.2 9.7 0.00 0.00 0.00 59 1013.2
20260504220451 17 241 4.8 19.3 0.00 0.00 0.00 58 1013.3
20260504215438 17 243 6.4 16.1 0.00 0.00 0.00 56 1013.3
20260504214438 17 223 4.8 12.9 0.00 0.00 0.00 55 1013.4
20260504213439 16 231 4.8 11.3 0.00 0.00 0.00 55 1013.4
20260504212926 16 232 3.2 12.9 0.00 0.00 0.00 55 1013.6
20260504212658 16 232 3.2 12.9 0.00 0.00 0.00 55 1013.6
20260504211451 17 244 4.8 11.3 0.00 0.00 0.00 53 1013.6
20260504210920 17 231 4.8 12.9 0.00 0.00 0.00 52 1013.7
20260504210649 17 231 4.8 12.9 0.00 0.00 0.00 52 1013.7
20260504205438 17 238 3.2 12.9 0.00 0.00 0.00 51 1013.7
20260504204437 17 219 4.8 14.5 0.00 0.00 0.00 49 1013.7
20260504203437 17 238 3.2 9.7 0.00 0.00 0.00 48 1013.7
20260504202435 17 238 4.8 14.5 0.00 0.00 0.00 48 1013.6
20260504201435 17 235 4.8 11.3 0.00 0.00 0.00 48 1013.7
20260504200917 18 235 4.8 16.1 0.00 0.00 0.00 48 1013.6
20260504200650 18 235 4.8 16.1 0.00 0.00 0.00 48 1013.6
20260504195435 18 250 4.8 14.5 0.00 0.00 0.00 48 1013.6
20260504194442 18 236 6.4 19.3 0.00 0.00 0.00 48 1013.4
20260504193433 18 259 8.0 20.9 0.00 0.00 0.00 47 1013.4
20260504192431 19 235 8.0 20.9 0.00 0.00 0.00 46 1013.3
20260504191433 19 234 8.0 20.9 0.00 0.00 0.00 45 1013.2
20260504190431 20 192 4.8 12.9 0.00 0.00 0.00 46 1013.1
20260504185915 20 232 4.8 14.5 0.00 0.00 0.00 47 1013.0
20260504185647 20 232 4.8 14.5 0.00 0.00 0.00 47 1013.0
20260504184432 20 226 4.8 12.9 0.00 0.00 0.00 47 1012.9
20260504183431 21 247 1.6 11.3 0.00 0.00 0.00 46 1012.9
20260504182431 21 274 0.0 1.6 0.00 0.00 0.00 45 1012.7
20260504181431 21 274 0.0 1.6 0.00 0.00 0.00 44 1012.6
20260504180432 21 274 0.0 3.2 0.00 0.00 0.00 43 1012.7
20260504175430 21 274 0.0 3.2 0.00 0.00 0.00 43 1012.7
20260504174431 22 274 0.0 3.2 0.00 0.00 0.00 42 1012.7
20260504173431 22 291 0.0 4.8 0.00 0.00 0.00 42 1012.7
20260504172430 22 298 1.6 6.4 0.00 0.00 0.00 42 1012.7
20260504171431 22 275 1.6 4.8 0.00 0.00 0.00 42 1012.7
20260504170431 22 233 0.0 3.2 0.00 0.00 0.00 42 1012.8
20260504150431 23 306 3.2 11.3 0.00 0.00 0.00 36 1013.3
20260504140431 23 244 4.8 12.9 0.00 0.00 0.00 35 1013.8
20260504130644 23 332 4.8 14.5 0.00 0.00 0.00 38 1014.4
20260504110435 21 263 3.2 9.7 0.00 0.00 0.00 39 1015.2
20260504081434 19 296 1.6 6.4 0.00 0.00 0.00 44 1015.6
20260504080434 19 230 1.6 6.4 0.00 0.00 0.00 45 1015.5
20260504050426 14 263 0.0 0.0 0.00 0.00 0.00 61 1014.3
20260504045904 14 263 0.0 0.0 0.00 0.00 0.00 63 1014.3
20260504045635 14 263 0.0 0.0 0.00 0.00 0.00 63 1014.3